Location: Baia Mare
(47.6580°N, 23.5876°E)
Time: 09:26:07
(UTC+03:00)

ISS - Pass Details

Date: 15 December 2014
Orbit: 411 x 421 km, 51.6° (Epoch: 14 October)

Event Time Altitude Azimuth Distance (km) Brightness Sun altitude
Rises 18:56:45 0° 292° (WNW) 2,348 1.0 -22.9°
Reaches altitude 10° 18:58:56 10° 283° (WNW) 1,482 -0.1 -23.2°
Enters shadow 19:01:47 36° 227° (SW) 666 -2.4 -23.7°
